Starlink 5109

operational
NORAD ID: 54002 Int'l Des: 2022-125 Owner: SPXS Country: US Constellation: starlink
LEOCIRCULAR

About Starlink 5109

Description loading...

Live Position

Loading 3D Globe...

Upcoming Passes

Altitude History

Altitude vs Time

uPlot chart will show altitude changes over time

Two-Line Element Set

1 54002U 22125AQ 26061.64675385 .00000377 00000-0 41754-4 0 9994
2 54002 53.2161 235.4739 0001356 95.9245 264.1902 15.08830824188542
Epoch: Mar 2, 2026 • Age: 32 hours

Current Status

Altitude 550.4 km
Velocity 7.59 km/s
Sub-Earth Point -32.49°S, 153.47°E
Launch Date Oct 5, 2022
Age 3.4 years
Type internet

Technical Details

Classification Payload
Mass 305.00 kg
Dry Mass 290.00 kg
Total Mass 305.00 kg
Length 0.20 m
Diameter 2.80 m
Span 9.00 m
Shape Box + pan
Manufacturer SPXS
Bus Type Starlink
Phase Status In Orbit
Owner/State SPXS/US

Large Constellations

Loading constellations...